This is the latest recevied weather packets stored in our database for station/object W0AKO. If no packets are shown the sender has not sent any weather packets the latest 10 day(s).
| Time | Temp. | Humidity | Pressure | Rain* | Wind** | Luminosity | Snow |
|---|---|---|---|---|---|---|---|
| 1777996922 | 18.33° C | 10% | 1013.1 hPa | 0 mm | - | 370 W/m² | - |
| 1777996617 | 17.78° C | 10% | 1013 hPa | 0 mm | - | 355 W/m² | - |
| 1777996314 | 17.22° C | 10% | 1012.9 hPa | 0 mm | - | 342 W/m² | - |
| 1777996010 | 17.22° C | 10% | 1013 hPa | 0 mm | - | 326 W/m² | - |
| 1777995706 | 17.78° C | 10% | 1013.1 hPa | 0 mm | - | 308 W/m² | - |
| 1777995404 | 17.22° C | 10% | 1013.3 hPa | 0 mm | - | 297 W/m² | - |
| 1777995100 | 16.67° C | 10% | 1013.3 hPa | 0 mm | - | 275 W/m² | - |
| 1777994797 | 16.67° C | 10% | 1013.2 hPa | 0 mm | - | 263 W/m² | - |
| 1777994493 | 17.22° C | 10% | 1013.1 hPa | 0 mm | - | 252 W/m² | - |
| 1777994188 | 16.67° C | 10% | 1013.4 hPa | 0 mm | - | 246 W/m² | - |
| 1777993886 | 16.67° C | 10% | 1013.2 hPa | 0 mm | - | 254 W/m² | - |
| 1777993582 | 16.67° C | 10% | 1013.4 hPa | 0 mm | - | 265 W/m² | - |
| 1777993279 | 16.67° C | 10% | 1013.3 hPa | 0 mm | - | 258 W/m² | - |
| 1777992975 | 16.67° C | 10% | 1013.1 hPa | 0 mm | - | 239 W/m² | - |
| 1777992674 | 16.67° C | 10% | 1013.4 hPa | 0 mm | - | 224 W/m² | - |
| 1777992371 | 16.67° C | 10% | 1013.2 hPa | 0 mm | - | 194 W/m² | - |
| 1777992068 | 16.67° C | 10% | 1013.3 hPa | 0 mm | - | 176 W/m² | - |
| 1777991766 | 16.11° C | 10% | 1013.3 hPa | 0 mm | - | 165 W/m² | - |
| 1777991462 | 16.67° C | 10% | 1013.3 hPa | 0 mm | - | 150 W/m² | - |
| 1777991160 | 16.67° C | 10% | 1013.1 hPa | 0 mm | - | 141 W/m² | - |
| 1777990857 | 15.56° C | 10% | 1013.3 hPa | 0 mm | - | 131 W/m² | - |
| 1777990554 | 15° C | 10% | 1013.4 hPa | 0 mm | - | 121 W/m² | - |
| 1777989948 | 15° C | 10% | 1013.1 hPa | 0 mm | - | 103 W/m² | - |
| 1777989644 | 15° C | 10% | 1013.2 hPa | 0 mm | - | 101 W/m² | - |
| 1777989341 | 14.44° C | 10% | 1013.1 hPa | 0 mm | - | 94 W/m² | - |
* Rain latest hour (hover to see other rain measurements)
** Current wind speed in m/s (hover to see current wind gust speed)